[[{"header":{"parameterUnit":"m.s-1","parameterCategory":1,"la1":30.2991,"la2":30.254,"lo1":-89.0895,"lo2":-89.0444,"dy":0.0017,"dx":0.0017,"nx":28,"ny":28,"refTime":"2025-03-20T09:00:00:Z","depth":0,"parameterNumber":2,"parameterNumberName":"U-component_of_WINDS"},"data":[0,0,0,0,0,0,0,0,0,0,0,0,0,0,0,0,0,0,0,0,0,0,0,0,0,0,0,0,0,0,0,0,0,0,0,0,0,0,0,0,0,0,0,0,0,0,0,0,0,0,0,0,0,0,0,0,0,0,3.9869,3.9868,0,3.9813,3.9813,3.9812,3.9705,3.9702,3.97,3.9698,3.9646,3.9647,3.9647,0,0,0,0,0,0,0,0,0,0,0,0,0,3.9887,3.9888,3.9869,3.9868,3.9867,3.9813,3.9813,3.9812,3.9705,3.9702,3.97,3.9697,3.9646,3.9646,3.9647,0,0,0,0,0,0,0,0,0,0,0,0,0,3.9861,3.9888,3.9869,3.9807,3.9801,3.9814,3.9813,3.9812,3.9705,3.9702,3.9699,3.9696,3.9646,3.9646,3.9647,3.9716,0,0,3.965,3.965,0,0,0,0,0,0,0,0,3.9862,3.986,3.9817,3.9812,3.9805,3.9762,3.98,3.978,3.9706,3.9742,3.9698,3.9695,3.9688,3.9685,3.9682,3.9714,3.9712,3.965,3.9651,3.9651,3.9651,0,0,0,0,0,0,0,3.9864,3.9862,3.9847,3.9817,3.9809,3.9784,3.9777,3.9796,3.9734,3.9739,3.9731,3.9725,3.9684,3.9681,3.968,3.9711,3.965,3.9651,3.9651,3.9652,3.9798,3.9802,0,0,0,0,0,0,3.9874,3.9864,3.9849,3.9845,3.9826,3.9787,3.9778,3.9779,3.9733,3.9723,3.9728,3.9721,3.9681,3.9679,3.9677,3.9755,3.9651,3.9652,3.9652,3.9795,3.9799,3.9803,0,0,0,0,0,0,3.9875,3.9874,3.9851,3.9853,3.9848,3.979,3.9792,3.978,3.9777,3.9725,3.9714,3.9736,3.9678,3.9676,3.9707,3.9752,3.9652,3.9653,3.9791,3.9796,3.9801,3.9912,0,0,0,0,0,0,3.9876,3.9875,3.9899,3.9854,3.9848,3.9881,3.9794,3.9781,3.9778,3.9768,3.973,3.972,3.9676,3.9707,3.9708,3.9751,3.9654,3.9787,3.9793,3.9799,3.9904,3.992,3.9934,0,0,0,0,0,3.9877,3.9933,3.9901,3.99,3.9877,3.9883,3.988,3.9826,3.9782,3.9807,3.9774,3.9722,3.9747,3.9711,3.9712,3.9756,3.9784,3.9791,3.9799,3.9897,3.9917,3.9934,0,0,0,0,0,0,3.9987,3.9926,3.989,3.9932,3.9914,3.9865,3.9894,3.9849,3.9843,3.9834,3.9769,3.9761,3.9802,3.9782,3.9742,3.9821,3.9757,3.9765,3.9832,3.985,3.9865,3.9869,3.9654,0,0,0,0,0,4.0016,4.0024,3.9972,4.0015,4.0007,3.9953,3.9954,3.9914,3.9893,3.9885,3.9853,3.9836,3.984,3.9844,3.9845,3.9901,3.9892,3.9932,3.9947,3.996,3.9968,3.9997,4.0014,3.9828,3.9828,3.9827,0,0,4.0076,4.0044,4.0054,4.0036,4.0017,4.0029,3.9947,3.9963,3.9972,3.9887,3.9914,3.9892,3.9868,3.9913,3.9931,3.9897,4.0017,3.997,3.998,3.9981,4.0007,4.0024,4.004,3.9833,3.9832,3.9831,0,0,4.0191,4.0168,4.0201,4.0184,4.0156,4.0119,4.0128,4.0086,4.0068,4.0094,4.0031,4.0042,4.005,4.0036,4.003,4.0142,4.0095,4.0145,4.0223,4.0252,4.0267,4.028,4.032,4.0336,4.0153,4.0153,4.0153,0,4.027,4.0284,4.0225,4.0245,4.024,4.0163,4.0198,4.0184,4.0159,4.0158,4.0121,4.013,4.0108,4.0149,4.0177,4.0174,4.0183,4.0148,4.0269,4.0282,4.0293,4.0331,4.0346,4.0159,4.0159,4.0158,4.0157,0,4.0383,4.0394,4.0425,4.04,4.0399,4.0427,4.0373,4.0379,4.034,4.0309,4.0338,4.031,4.0304,4.0311,4.0273,4.0346,4.0327,4.0281,4.0215,4.0318,4.0352,4.0367,4.0168,4.0166,4.0164,4.0163,0,0,4.0564,4.0507,4.052,4.0508,4.0472,4.0481,4.0506,4.0499,4.0506,4.0492,4.0512,4.0521,4.0479,4.0472,4.0433,4.0459,4.0551,4.041,4.0408,4.0437,4.0631,4.0665,4.0683,4.0519,4.0522,4.0524,4.0633,0,4.0671,4.0709,4.0657,4.0707,4.0717,4.0646,4.0668,4.065,4.0622,4.0628,4.0597,4.0605,4.0548,4.0544,4.0566,4.0535,4.0589,4.0527,4.0539,4.054,4.0546,4.0701,4.0737,4.0841,4.0646,4.0648,4.065,0,4.0801,4.0792,4.0843,4.0805,4.0807,4.0828,4.0818,4.0825,4.0803,4.0781,4.0775,4.0728,4.0752,4.0689,4.0722,4.068,4.0683,4.0669,4.0671,4.067,4.0601,4.0704,4.0873,4.0889,4.0671,4.0669,4.0668,0,4.0929,4.0929,4.096,4.0952,4.0909,4.0925,4.0908,4.0883,4.0883,4.0876,4.0875,4.0871,4.0869,4.0868,4.0822,4.0781,4.0861,4.0794,4.0844,4.0846,4.0864,4.0863,4.1036,4.0866,4.0866,4.0866,4.0866,0,4.1054,4.1088,4.1016,4.1035,4.1072,4.1014,4.1052,4.1028,4.1007,4.1021,4.096,4.0975,4.0914,4.0923,4.0887,4.092,4.092,4.0904,4.0894,4.0909,4.0911,4.0909,4.09,4.087,4.0869,4.0868,4.0868,0,4.1201,4.1155,4.1184,4.114,4.1131,4.116,4.1123,4.114,4.1108,4.1127,4.1129,4.108,4.1087,4.1042,4.1041,4.1017,4.1068,4.1046,4.1075,4.1068,4.112,4.1116,4.1297,4.1318,4.1136,4.1138,4.114,0,4.1284,4.1308,4.1268,4.1272,4.1258,4.1266,4.1265,4.121,4.1212,4.1191,4.1211,4.1213,4.1212,4.1228,4.1193,4.1193,4.1171,4.1234,4.117,4.1185,4.1171,4.117,4.1173,4.1247,4.125,4.1251,4.1253,0,4.1435,4.1411,4.1412,4.1405,4.1406,4.1398,4.1387,4.1395,4.1335,4.1341,4.1347,4.1347,4.1346,4.135,4.1343,4.1327,4.1281,4.1274,4.1285,4.13,4.1316,4.1308,4.1111,4.1269,4.1268,4.1267,4.1266,4.1265,4.1552,4.1571,4.1546,4.1549,4.1534,4.1526,4.1539,4.1509,4.1513,4.1508,4.1476,4.1489,4.1468,4.1454,4.1443,4.1454,4.1423,4.144,4.1444,4.1449,4.1458,4.1315,4.1452,4.1452,4.1451,4.1451,4.145,0,4.17,4.1681,4.1684,4.167,4.1673,4.1629,4.1614,4.162,4.1632,4.1616,4.1617,4.1625,4.1629,4.1595,4.1595,4.161,4.1589,4.1612,4.161,4.1607,4.1485,4.1475,4.1629,4.1629,4.1629,4.1629,4.1629,4.1629,4.1778,4.1807,4.1781,4.1803,4.1784,4.1795,4.179,4.1783,4.177,4.1782,4.1784,4.1762,4.174,4.1738,4.174,4.173,4.1733,4.1763,4.1746,4.1633,4.1616,4.1599,4.1589,4.1764,4.1765,4.1867,4.1868,4.1869]},{"header":{"parameterUnit":"m.s-1","parameterCategory":1,"la1":30.2991,"la2":30.254,"lo1":-89.0895,"lo2":-89.0444,"dy":0.0017,"dx":0.0017,"nx":28,"ny":28,"refTime":"2025-03-20T09:00:00:Z","depth":0,"parameterNumber":3,"parameterNumberName":"V-component_of_WINDS"},"data":[0,0,0,0,0,0,0,0,0,0,0,0,0,0,0,0,0,0,0,0,0,0,0,0,0,0,0,0,0,0,0,0,0,0,0,0,0,0,0,0,0,0,0,0,0,0,0,0,0,0,0,0,0,0,0,0,0,0,3.2698,3.2701,0,3.2945,3.2948,3.2951,3.3001,3.2999,3.2997,3.2996,3.3248,3.3256,3.3265,0,0,0,0,0,0,0,0,0,0,0,0,0,3.2266,3.2274,3.2698,3.2701,3.2704,3.2945,3.2948,3.2952,3.3001,3.2999,3.2997,3.2995,3.3245,3.3255,3.3265,0,0,0,0,0,0,0,0,0,0,0,0,0,3.2478,3.2276,3.2697,3.2758,3.2766,3.2944,3.2948,3.2953,3.3002,3.2999,3.2996,3.2994,3.3242,3.3254,3.3267,3.3402,0,0,3.3306,3.3311,0,0,0,0,0,0,0,0,3.2465,3.2493,3.2746,3.2754,3.2763,3.294,3.2889,3.3103,3.3003,3.2912,3.2996,3.2992,3.3148,3.3168,3.3221,3.3414,3.3425,3.3307,3.3315,3.332,3.3324,0,0,0,0,0,0,0,3.2451,3.2483,3.2796,3.2749,3.276,3.2772,3.2799,3.293,3.3043,3.292,3.2924,3.2953,3.3152,3.3208,3.3227,3.3429,3.3306,3.3318,3.3326,3.3331,3.3745,3.3748,0,0,0,0,0,0,3.2426,3.247,3.2788,3.2803,3.2604,3.2782,3.2812,3.2886,3.3041,3.3063,3.2955,3.2954,3.3188,3.3212,3.3236,3.3405,3.332,3.3332,3.3339,3.3741,3.3745,3.3749,0,0,0,0,0,0,3.2416,3.2453,3.2778,3.2638,3.268,3.2793,3.2875,3.2892,3.2949,3.3068,3.3088,3.2992,3.3187,3.3218,3.336,3.3414,3.3338,3.3349,3.3737,3.3742,3.3747,3.3743,0,0,0,0,0,0,3.2404,3.245,3.2503,3.2639,3.2688,3.2899,3.2878,3.2899,3.2971,3.2972,3.3108,3.3128,3.3187,3.3341,3.3373,3.343,3.3359,3.3733,3.374,3.3746,3.3739,3.3747,3.3755,0,0,0,0,0,3.2388,3.2492,3.2505,3.2543,3.2756,3.2902,3.293,3.2996,3.2975,3.3029,3.3105,3.3124,3.3403,3.3355,3.3392,3.3454,3.373,3.3738,3.3745,3.3736,3.3746,3.3754,0,0,0,0,0,0,3.2359,3.2511,3.2528,3.2679,3.2777,3.291,3.2981,3.3004,3.3111,3.3107,3.3184,3.3214,3.3352,3.3417,3.3361,3.3592,3.3565,3.358,3.3545,3.3556,3.3564,3.3546,3.337,0,0,0,0,0,3.2371,3.2477,3.2603,3.2724,3.2772,3.2868,3.2934,3.2976,3.308,3.3122,3.3209,3.331,3.342,3.3491,3.36,3.3748,3.3778,3.3808,3.3816,3.3822,3.3834,3.3917,3.3932,3.3774,3.3774,3.3774,0,0,3.2395,3.2491,3.2553,3.2721,3.2802,3.2909,3.2903,3.3017,3.3097,3.314,3.328,3.3347,3.3464,3.361,3.3678,3.3668,3.3884,3.3831,3.3835,3.3845,3.3926,3.3941,3.3955,3.3779,3.3778,3.3777,0,0,3.2495,3.2578,3.2688,3.2769,3.2892,3.2955,3.298,3.311,3.3156,3.3298,3.3332,3.3428,3.3617,3.3699,3.3765,3.3894,3.3915,3.3927,3.3968,3.4048,3.406,3.4072,3.4118,3.4134,3.3939,3.3939,3.3939,0,3.251,3.2674,3.2741,3.2854,3.2927,3.2969,3.3081,3.3156,3.3308,3.3357,3.3343,3.358,3.3662,3.3827,3.3858,3.3911,3.3943,3.3913,3.4053,3.4065,3.4077,3.4122,3.4139,3.3939,3.3939,3.3939,3.3939,0,3.2686,3.2799,3.2873,3.3019,3.3099,3.3211,3.3294,3.3367,3.3402,3.3465,3.3608,3.3708,3.3837,3.3879,3.3913,3.4049,3.4039,3.4038,3.4013,3.4092,3.4135,3.4153,3.394,3.394,3.394,3.394,0,0,3.2777,3.2957,3.2983,3.305,3.3188,3.3276,3.3389,3.3515,3.3576,3.3679,3.3775,3.3933,3.3933,3.4008,3.4052,3.4122,3.4217,3.4113,3.4117,3.4129,3.4373,3.4373,3.4392,3.4231,3.4235,3.4238,3.4363,0,3.2894,3.3098,3.3161,3.3331,3.3436,3.3477,3.3575,3.367,3.3732,3.3829,3.3897,3.4008,3.3999,3.4045,3.4116,3.4191,3.4268,3.4182,3.4322,3.4326,3.4293,3.4415,3.4417,3.4531,3.4381,3.4384,3.4386,0,3.3058,3.3163,3.3344,3.3468,3.3515,3.3602,3.3722,3.3815,3.3923,3.3963,3.4046,3.4084,3.4202,3.4168,3.4332,3.4273,3.4333,3.4378,3.4384,3.4401,3.4362,3.4436,3.4569,3.4586,3.4413,3.4411,3.4409,0,3.3106,3.3293,3.3426,3.3481,3.3629,3.3689,3.3754,3.3859,3.393,3.4035,3.4082,3.4198,3.4263,3.4352,3.442,3.4389,3.4578,3.455,3.4614,3.4612,3.4654,3.465,3.4798,3.469,3.469,3.4689,3.4689,0,3.3231,3.334,3.345,3.3531,3.3654,3.3725,3.3845,3.3911,3.4003,3.4098,3.414,3.4228,3.4312,3.441,3.4464,3.4591,3.462,3.4655,3.4668,3.4652,3.4648,3.4694,3.4688,3.4694,3.4693,3.4692,3.4691,0,3.3307,3.3385,3.3532,3.3659,3.3694,3.3779,3.3888,3.3968,3.4031,3.415,3.4182,3.428,3.4398,3.4474,3.4624,3.466,3.48,3.481,3.4764,3.477,3.4831,3.4824,3.5015,3.5044,3.4915,3.4916,3.4917,0,3.3382,3.3467,3.3604,3.367,3.3735,3.3842,3.3915,3.3987,3.4061,3.4189,3.4254,3.4375,3.4475,3.4662,3.4746,3.4861,3.4875,3.4934,3.4893,3.4874,3.4877,3.4871,3.488,3.4941,3.4942,3.4943,3.4943,0,3.3507,3.3541,3.3646,3.3763,3.3849,3.3945,3.4041,3.4093,3.4181,3.4262,3.4384,3.4462,3.4615,3.4734,3.4856,3.4922,3.4948,3.4955,3.4977,3.4962,3.4932,3.4949,3.4783,3.4951,3.495,3.495,3.4949,3.4949,3.3586,3.3664,3.3772,3.3886,3.3966,3.4054,3.4136,3.4208,3.4311,3.4442,3.4477,3.4604,3.4708,3.4875,3.4943,3.5042,3.5035,3.5066,3.5074,3.508,3.5081,3.4914,3.5064,3.5064,3.5064,3.5064,3.5064,0,3.3714,3.3786,3.389,3.4023,3.4113,3.4129,3.4235,3.4309,3.442,3.4516,3.4614,3.4752,3.4868,3.4961,3.5079,3.5141,3.5156,3.517,3.5167,3.5181,3.5081,3.5051,3.5156,3.5156,3.5156,3.5156,3.5156,3.5156,3.3792,3.3923,3.397,3.4141,3.4211,3.4336,3.4396,3.4477,3.4554,3.4707,3.4803,3.4863,3.4958,3.5083,3.5189,3.5214,3.5256,3.5268,3.5294,3.5199,3.5188,3.5179,3.5151,3.5276,3.5276,3.5387,3.5388,3.5389]}]]